This is the latest recevied weather packets stored in our database for station/object W4KAB. If no packets are shown the sender has not sent any weather packets the latest 10 day(s).
| Time | Temp. | Humidity | Pressure | Rain* | Wind** | Luminosity | Snow |
|---|---|---|---|---|---|---|---|
| 1777123963 | 17.22° C | 83% | 1012.2 hPa | 0 mm | - | 58 W/m² | - |
| 1777123658 | 17.22° C | 83% | 1012.1 hPa | 0 mm | - | 54 W/m² | - |
| 1777123355 | 16.67° C | 83% | 1012.3 hPa | 0 mm | - | 55 W/m² | - |
| 1777123051 | 16.67° C | 84% | 1012.4 hPa | 0 mm | - | 60 W/m² | - |
| 1777122747 | 16.11° C | 84% | 1012.4 hPa | 0 mm | - | 59 W/m² | - |
| 1777122444 | 16.11° C | 84% | 1012.4 hPa | 0 mm | - | 49 W/m² | - |
| 1777122141 | 16.11° C | 84% | 1012.3 hPa | 0 mm | - | 50 W/m² | - |
| 1777121836 | 15.56° C | 86% | 1012.4 hPa | 0 mm | - | 53 W/m² | - |
| 1777121533 | 15.56° C | 85% | 1012.5 hPa | 0 mm | - | 52 W/m² | - |
| 1777121229 | 15.56° C | 85% | 1012.2 hPa | 0 mm | - | 44 W/m² | - |
| 1777120926 | 15° C | 86% | 1012.3 hPa | 0 mm | - | 40 W/m² | - |
| 1777120622 | 15° C | 86% | 1012.4 hPa | 0 mm | - | 38 W/m² | - |
| 1777120318 | 15° C | 86% | 1012.2 hPa | 0 mm | - | 40 W/m² | - |
| 1777120013 | 14.44° C | 88% | 1012.2 hPa | 0 mm | - | 39 W/m² | - |
| 1777119709 | 13.89° C | 88% | 1012.3 hPa | 0 mm | - | 36 W/m² | - |
| 1777119404 | 13.89° C | 89% | 1012 hPa | 0 mm | - | 31 W/m² | - |
| 1777119099 | 13.89° C | 90% | 1012.2 hPa | 0 mm | - | 27 W/m² | - |
| 1777118795 | 13.33° C | 92% | 1012.2 hPa | 0 mm | - | 26 W/m² | - |
| 1777118492 | 13.33° C | 92% | 1012.3 hPa | 0 mm | - | 25 W/m² | - |
| 1777118187 | 12.78° C | 92% | 1012.2 hPa | 0 mm | - | 25 W/m² | - |
| 1777117884 | 12.78° C | 93% | 1012.3 hPa | 0 mm | - | 23 W/m² | - |
| 1777117581 | 12.78° C | 93% | 1012 hPa | 0 mm | - | 21 W/m² | - |
| 1777117279 | 12.22° C | 93% | 1012 hPa | 0 mm | - | 19 W/m² | - |
| 1777116979 | 12.22° C | 94% | 1012.2 hPa | 0 mm | - | 16 W/m² | - |
| 1777116675 | 12.22° C | 94% | 1011.8 hPa | 0 mm | - | 13 W/m² | - |
* Rain latest hour (hover to see other rain measurements)
** Current wind speed in m/s (hover to see current wind gust speed)